Theta_e
299 301 301 300 301 303 303 304 304 304 305 306 306 307 306 305 305 304 308 308 316 320 320 319 310 310 317 320 319 320 321 317 315 316 319 319 320 320 322 322 322 324 324 324 324 323 323
300 300 300 301 301 299 299 301 302 303 303 304 305 307 307 306 305 306 304 307 309 317 319 319 316 311 318 320 318 320 321 320 319 319 319 319 319 320 321 322 322 323 323 323 323 323 322
300 300 300 301 301 301 300 298 298 301 301 302 303 304 307 307 307 305 305 305 306 311 318 319 319 316 319 318 318 320 322 321 320 319 320 319 319 319 320 321 321 322 322 322 323 322 323
300 300 300 299 299 300 300 300 299 299 300 301 301 302 305 307 307 305 304 304 306 307 316 319 318 317 319 315 312 319 321 321 320 320 319 320 319 319 320 320 322 322 322 322 322 322 322
299 300 299 300 299 299 299 299 299 299 300 301 300 301 302 305 308 306 305 307 306 306 311 318 319 318 319 314 313 317 320 322 322 321 320 319 319 320 320 320 321 322 321 321 321 323 323
298 298 298 298 299 299 298 298 298 299 301 300 300 302 302 304 307 307 306 307 307 306 307 314 318 319 320 317 316 315 319 320 322 321 320 319 319 320 320 321 321 320 322 321 322 323 323
298 298 298 298 298 298 298 298 299 300 301 300 301 303 303 302 306 308 307 307 307 308 309 316 319 320 320 319 314 318 317 318 320 321 322 320 320 320 319 321 321 321 321 321 323 324 323
297 297 296 297 298 298 298 298 299 299 300 301 301 303 304 304 304 308 307 310 308 313 313 309 317 319 319 320 317 316 317 318 319 322 322 322 322 320 320 320 321 321 321 321 323 323 323
296 297 296 297 297 297 298 297 297 298 299 301 302 304 305 305 303 306 308 308 309 310 314 314 318 318 320 320 320 316 318 318 319 321 322 322 322 321 320 320 321 322 321 322 322 322 322
296 295 296 296 297 297 297 297 297 297 298 300 301 302 304 305 305 305 308 309 310 310 313 313 317 319 319 320 320 318 318 318 319 320 322 322 321 321 321 321 321 322 321 321 321 322 321
296 296 295 296 295 296 297 296 297 297 298 300 301 302 303 303 306 305 308 310 310 310 310 309 311 316 319 319 319 318 318 318 320 320 320 322 321 321 322 322 322 321 321 321 321 321 321
295 296 295 296 296 295 295 295 296 297 298 300 300 302 304 305 305 307 309 310 310 311 312 309 314 315 318 320 320 320 317 317 318 319 320 320 320 322 322 322 321 322 321 321 321 321 322
295 295 296 295 295 295 295 295 296 296 297 299 300 302 305 306 306 306 310 310 312 311 309 309 316 319 319 320 320 321 320 319 321 321 321 320 320 321 322 321 322 321 322 322 322 322 322
295 295 296 295 295 294 295 296 296 296 297 299 300 302 306 305 306 306 310 310 313 311 309 309 309 319 320 319 320 320 321 320 320 319 319 319 321 320 321 322 321 323 322 323 322 323 322
294 295 295 295 294 295 295 294 295 296 297 299 300 303 305 306 307 307 310 309 313 311 310 309 309 311 318 320 320 321 322 323 319 318 319 318 319 320 320 321 321 322 323 322 323 323 324
294 295 293 294 294 294 295 295 295 296 297 299 300 303 305 306 307 308 310 311 312 311 310 310 309 311 318 318 320 321 322 321 320 319 317 319 320 319 320 320 321 321 322 323 323 324 324
295 294 293 294 294 294 295 295 295 296 297 299 303 305 306 306 306 307 310 310 311 311 311 310 310 310 312 318 319 320 322 321 320 320 319 318 320 320 319 320 320 320 320 322 323 323 324
295 294 293 294 294 294 295 295 295 296 298 299 300 305 307 307 307 304 307 309 310 311 310 311 312 310 312 314 319 322 322 322 321 321 321 319 320 319 320 320 320 321 320 321 323 324 324
294 294 293 293 294 294 295 296 296 295 298 299 299 300 306 307 307 307 307 308 310 311 312 312 313 312 313 313 314 315 317 318 319 322 322 321 320 320 319 319 320 320 321 320 321 323 324
294 293 293 293 294 294 295 296 296 294 297 298 299 304 304 303 306 308 308 310 311 310 311 312 312 312 314 315 315 317 317 318 319 320 321 321 322 321 320 320 319 321 320 320 320 322 324
293 294 293 293 294 294 295 296 296 293 297 298 298 302 304 308 303 308 309 308 310 311 310 311 313 312 314 315 315 315 316 316 316 317 320 322 321 321 320 319 320 318 321 320 320 320 322
293 294 294 294 294 295 295 296 295 294 296 298 299 300 303 304 305 306 307 309 310 309 310 311 312 312 313 314 314 314 313 315 316 316 318 322 324 323 323 320 319 320 320 320 320 320 319
294 294 294 294 295 295 295 296 293 294 296 298 299 300 301 303 306 306 307 308 309 310 310 311 311 311 312 313 313 312 312 313 315 317 317 317 316 324 322 322 321 320 320 321 320 320 320
293 294 294 295 295 295 293 292 292 295 296 298 299 299 301 303 305 306 307 308 309 310 311 310 311 312 310 310 310 311 312 312 314 314 315 314 315 318 323 323 324 322 319 319 321 321 320
293 294 294 295 294 293 292 292 293 295 296 298 300 301 300 303 306 305 307 308 309 309 310 311 310 309 310 310 312 312 312 313 313 313 314 313 313 317 323 324 322 321 320 320 319 319 319
294 295 295 294 293 293 293 293 294 295 296 297 300 302 302 301 305 305 306 307 309 311 311 311 309 309 310 310 312 313 312 313 312 311 313 313 313 315 321 325 325 322 320 319 320 320 318
294 294 295 293 293 293 293 292 292 295 295 295 300 302 302 300 303 306 307 308 308 310 311 311 311 311 310 312 311 314 313 311 312 313 314 316 318 319 319 324 322 319 320 319 321 320 319
293 294 295 295 293 292 292 293 293 292 293 295 297 299 299 300 303 306 306 304 302 304 309 309 309 310 311 310 312 312 314 313 312 313 312 317 318 320 321 324 323 319 320 319 321 320 320
292 293 295 295 294 293 292 292 293 293 292 293 297 298 298 299 302 304 304 305 305 305 305 305 307 308 311 312 312 311 311 314 313 314 313 314 313 321 322 323 320 319 319 319 321 325 322
Wind_Speed
15 16 18 18 19 19 20 18 19 19 19 20 19 21 21 21 22 23 25 23 23 22 20 17 14 14 15 17 28 14 13 6 7 8 11 15 17 17 17 19 20 18 18 19 16 16 8
19 18 19 17 19 20 22 24 24 24 22 24 24 21 21 22 22 22 23 23 23 21 20 18 12 14 17 27 25 20 11 9 9 11 14 16 16 18 20 21 20 18 10 19 26 14 16
18 19 18 19 19 21 21 23 27 28 27 26 26 24 21 22 22 21 22 21 22 22 19 20 14 13 20 32 12 16 19 15 10 9 12 13 15 18 12 14 19 21 13 13 19 17 15
20 20 20 20 22 21 23 26 28 24 24 25 26 26 23 22 22 23 21 20 20 21 22 20 17 13 24 17 32 22 13 15 15 13 12 13 8 14 20 16 9 12 13 16 18 22 25
22 22 21 19 24 24 25 27 26 22 21 24 26 24 25 23 23 21 20 18 18 20 24 16 18 15 19 15 34 26 27 23 17 20 16 14 10 17 17 15 13 16 16 20 21 22 18
19 22 23 21 22 23 25 25 22 23 23 26 24 23 23 23 22 19 18 16 15 19 22 22 19 11 22 23 21 29 24 24 21 17 20 17 12 12 15 15 17 18 20 20 19 17 17
19 20 23 22 23 22 27 23 23 25 25 25 23 22 22 23 24 18 15 11 9 9 19 14 12 17 12 20 16 23 27 27 24 20 18 25 14 19 23 22 20 20 22 22 18 23 18
21 21 24 23 25 22 25 23 25 25 25 24 23 22 21 21 24 19 19 28 21 4 12 36 33 32 42 32 16 23 24 29 31 24 21 19 24 23 21 22 22 23 24 23 18 16 6
23 22 23 21 23 22 22 23 26 27 26 25 22 19 16 16 18 26 30 37 23 18 9 19 29 36 27 21 27 24 27 33 28 25 26 25 23 22 24 22 23 23 22 20 21 17 19
22 23 23 21 23 22 22 24 25 26 26 25 23 21 16 12 20 29 38 27 19 11 5 11 18 15 37 26 28 29 29 31 26 31 28 27 25 26 26 27 24 22 21 19 20 17 15
22 23 23 24 23 24 25 26 26 26 26 24 23 21 20 22 20 31 21 24 22 10 7 9 26 19 21 28 13 34 32 31 28 29 19 30 28 27 28 25 26 24 18 18 17 17 18
21 23 23 23 26 25 25 25 26 26 24 23 23 21 21 26 35 25 23 23 24 6 10 7 13 25 21 41 38 21 41 34 33 26 27 29 35 29 30 26 20 20 22 18 16 13 16
22 23 23 26 24 25 23 22 25 26 24 24 25 24 22 27 39 29 26 27 9 12 9 15 11 21 27 28 32 30 26 26 23 26 27 29 31 27 30 28 27 24 16 12 14 13 18
23 23 23 26 25 23 22 23 24 24 23 24 27 24 23 29 29 27 27 10 13 12 23 9 23 17 26 26 28 30 33 25 26 24 20 23 22 31 24 32 24 26 20 12 17 14 17
22 22 24 26 24 22 24 24 24 24 23 25 28 20 22 22 29 35 24 13 11 17 28 29 25 25 24 25 22 26 30 29 30 30 26 24 33 22 29 27 25 25 24 26 19 21 15
22 24 28 23 24 23 24 24 23 23 23 27 29 19 23 21 30 38 14 19 8 23 24 30 33 28 22 25 23 17 28 31 31 30 32 22 21 27 27 31 24 26 19 20 15 20 23
23 26 25 23 24 23 23 24 23 22 23 28 18 7 7 21 30 25 14 9 24 30 28 28 29 31 30 17 26 28 13 29 33 31 30 29 22 20 28 28 33 17 22 19 16 15 16
24 27 26 23 23 23 22 23 23 20 22 23 11 4 6 26 9 3 8 11 26 25 37 29 24 27 30 26 23 28 23 21 32 30 31 32 11 22 25 30 31 26 26 25 11 28 23
25 26 27 24 21 21 20 21 24 18 16 21 13 5 13 31 9 13 4 17 19 26 26 29 28 10 18 30 28 23 19 30 35 23 29 24 22 22 20 21 23 30 28 28 26 18 21
24 25 26 24 22 19 20 21 22 14 13 14 7 3 5 5 23 14 7 6 10 33 28 27 26 24 17 17 18 8 16 12 24 27 39 26 25 27 23 25 22 27 31 27 25 17 17
22 23 25 23 20 20 20 23 19 12 10 12 4 4 4 3 7 14 13 5 17 14 30 31 24 28 24 17 15 15 16 24 24 26 21 23 27 31 31 35 24 34 25 29 26 26 21
23 25 24 22 21 20 21 22 18 11 12 14 5 3 7 6 14 12 19 23 23 23 22 28 28 26 23 25 23 23 24 23 22 19 16 18 26 25 30 31 36 31 32 29 29 26 28
22 25 22 21 22 22 23 21 15 11 12 13 16 20 16 12 12 7 16 26 31 26 26 33 32 31 25 26 27 26 25 25 17 11 7 7 5 18 25 29 29 38 26 28 27 28 24
22 21 22 23 23 24 20 16 14 14 14 20 26 21 8 10 14 17 11 25 29 29 29 27 31 27 35 30 27 27 27 25 23 22 18 9 13 8 16 24 36 17 32 30 23 26 29
19 20 22 22 23 19 16 15 14 17 16 23 27 24 10 10 15 22 26 19 26 30 20 24 27 32 28 27 16 21 14 19 25 27 23 19 18 7 10 22 19 29 23 25 27 34 30
18 19 21 21 19 17 16 16 16 16 18 26 25 22 20 4 12 30 21 22 16 16 20 25 37 36 33 5 14 14 11 11 12 14 23 21 19 17 13 22 30 24 24 32 24 25 33
15 16 19 19 17 16 15 16 18 19 22 26 21 17 17 7 19 16 8 4 25 21 13 19 24 22 29 14 8 6 15 19 21 21 18 11 14 22 18 13 15 19 27 32 32 20 31
14 15 16 18 18 17 18 17 19 20 20 24 23 17 13 7 20 13 13 8 3 2 2 3 5 6 7 8 8 9 6 11 20 26 23 17 16 14 17 16 12 22 27 33 19 27 17
17 16 16 18 19 19 19 18 19 20 21 21 16 21 25 12 7 6 4 10 13 12 8 6 8 1 9 6 7 6 9 5 20 20 23 18 15 14 16 19 15 15 22 28 19 10 20
Wind_Direction
316 323 319 312 301 298 300 302 300 292 291 291 289 283 277 273 264 260 256 256 251 252 253 254 251 259 256 245 238 291 302 285 243 234 245 243 241 240 248 247 253 235 245 261 268 278 267
333 313 311 309 317 314 303 298 296 294 293 288 286 283 276 272 266 262 257 255 254 251 251 248 246 258 243 253 244 247 263 265 259 234 243 240 246 244 264 255 260 259 254 255 266 242 254
317 320 308 313 310 308 312 310 296 293 290 292 282 279 275 273 266 261 259 253 251 254 246 246 241 254 252 239 232 236 247 243 250 238 254 244 245 258 252 268 259 271 276 263 264 256 254
318 315 318 308 303 308 307 309 312 296 291 293 291 279 269 269 268 260 256 251 249 249 246 230 242 248 253 245 241 245 237 228 239 247 250 262 271 260 258 264 262 261 244 252 249 237 237
306 312 312 310 312 307 308 309 308 305 298 300 300 290 271 258 263 262 253 249 246 248 244 237 224 228 254 255 226 229 230 239 251 245 243 245 243 247 248 239 250 234 241 236 245 247 235
318 303 310 303 301 310 314 310 305 303 298 302 298 295 283 254 252 256 250 247 246 248 253 249 211 229 247 234 225 223 220 227 236 241 229 227 235 239 227 222 224 233 223 242 261 261 201
315 312 306 307 308 308 312 308 303 303 301 299 291 292 286 269 239 241 238 240 246 241 226 218 213 213 315 225 216 215 216 217 221 234 225 218 226 223 227 224 243 250 258 247 237 227 199
311 310 311 300 307 307 313 310 302 302 306 301 287 289 279 271 238 233 224 220 214 336 243 236 241 229 242 283 259 224 211 205 210 223 222 227 225 229 235 237 233 243 258 261 276 273 202
314 314 315 306 312 307 312 311 303 304 303 302 292 284 272 260 243 228 222 229 229 283 264 253 230 234 237 252 250 221 210 210 210 214 218 221 228 222 238 235 238 240 239 249 262 266 270
314 315 316 308 309 317 314 313 310 309 303 297 297 286 274 256 238 223 228 224 223 257 275 247 206 242 227 235 245 226 214 216 223 217 219 232 229 235 218 235 234 236 239 246 257 268 259
315 315 315 318 309 304 309 315 313 309 301 299 296 284 275 243 222 215 216 205 197 188 234 218 225 199 200 210 210 214 223 219 221 221 211 227 226 225 244 222 230 247 244 249 250 247 255
315 316 317 319 317 312 303 306 310 309 306 308 299 280 269 239 226 226 204 192 188 190 213 245 186 198 188 207 225 238 206 222 228 230 228 238 229 229 233 242 238 238 247 255 260 266 258
317 317 320 317 309 313 309 308 311 311 308 309 305 281 258 226 223 213 199 185 202 212 226 220 194 184 199 207 212 218 205 216 212 212 230 227 229 231 228 234 231 232 236 227 233 228 240
320 317 317 321 316 311 313 314 314 313 310 311 310 285 247 231 218 201 197 215 213 182 211 222 218 191 207 213 210 213 219 210 217 223 219 223 222 216 223 227 222 224 215 228 224 226 250
322 319 319 320 318 315 312 311 317 315 312 319 313 288 261 223 205 193 188 197 213 192 204 221 247 220 208 225 226 205 219 226 212 210 227 223 231 212 224 230 212 223 215 225 250 278 288
321 321 321 319 318 317 314 318 321 320 318 324 315 291 259 216 196 200 198 214 201 232 203 216 225 231 214 212 221 228 213 221 214 209 224 241 244 220 217 220 206 221 236 211 228 236 251
319 321 326 319 317 320 320 319 321 323 326 331 313 234 263 211 194 220 218 198 223 226 229 209 226 233 242 208 226 226 206 233 221 212 214 236 250 247 213 208 215 194 227 241 211 224 233
316 322 324 319 319 322 325 326 326 326 332 342 335 261 185 186 175 223 217 194 220 225 234 244 233 231 240 234 220 227 249 218 222 222 213 217 235 244 249 217 213 206 210 226 212 220 226
318 321 322 323 323 322 325 327 323 325 336 339 312 281 179 183 201 222 193 225 233 228 235 232 246 251 257 240 258 251 234 237 274 257 225 209 223 245 257 259 239 202 204 221 235 222 231
313 315 319 322 323 323 324 323 315 320 330 341 307 294 265 275 218 220 205 197 209 233 244 243 234 233 241 253 241 267 270 261 247 261 273 212 233 220 232 233 230 210 212 215 224 235 225
322 319 320 322 324 321 322 318 315 313 316 318 243 264 259 275 233 233 224 234 226 235 226 240 250 231 217 226 236 245 256 269 267 273 278 264 228 235 225 237 232 239 215 212 227 219 229
325 323 323 324 323 319 318 314 309 306 306 296 250 247 260 263 279 206 220 225 226 229 231 230 243 242 244 230 230 232 238 253 257 259 292 265 265 228 246 224 233 244 229 218 217 232 231
322 324 329 329 324 321 312 307 302 306 308 283 273 265 247 261 264 240 213 225 229 238 229 228 223 239 235 244 240 242 249 259 273 279 250 290 292 233 232 230 228 233 243 219 215 225 230
325 332 333 329 324 316 316 311 306 309 299 286 284 250 232 251 235 246 241 235 225 223 230 228 231 224 233 238 255 265 254 249 252 253 248 260 291 271 233 236 230 221 232 243 251 221 227
329 335 337 331 325 324 321 314 308 315 309 298 293 259 227 249 237 243 239 232 232 228 236 228 237 237 255 231 238 242 253 259 247 247 243 224 253 271 246 231 234 232 228 227 236 245 244
327 337 336 330 334 332 329 318 308 318 321 321 303 264 241 261 236 245 242 237 233 228 228 229 229 221 228 245 230 231 227 241 235 231 213 228 223 245 252 226 224 224 229 228 240 242 244
322 333 335 334 336 331 328 327 315 304 317 322 317 289 236 251 257 256 210 237 239 225 234 231 225 233 242 240 243 218 223 218 251 246 230 233 243 233 240 238 232 219 222 233 219 231 236
310 321 327 328 330 331 327 325 325 329 319 316 326 330 293 261 252 259 196 168 274 320 186 143 158 222 224 227 231 228 250 235 242 242 236 244 233 237 228 227 224 220 224 223 222 221 241
299 303 310 314 319 325 328 323 320 323 333 324 313 317 328 260 273 241 280 199 204 202 219 232 253 236 208 222 201 232 237 250 238 243 224 242 229 237 215 213 215 214 226 245 245 203 178